Wind from 347 at 1 knots gusting 3

Air temperature 17.2° C
Dewpoint 15.0° C

Last reported at 2014-Apr-24 04:50 UTC.
Time now 2014-Apr-24 05:58 UTC

Location: N 40°43' E 023°43'.
View on Google Maps.

See reports from other nearby stations

Tides Stations Pressure Air Temp Water Temp Dewpoint Dewpoint depression Visibility Wind Speed Wind Dir Waves Ship positions

  
sailing weather and tide predictions

DW4782 Asprovalta GR weather

date/time (UTC)wind fromknots sea level pressurealtimeterstation pressurevisibilityair tempwater tempwave heightnotes
2014-Apr-24 04:50 347 1 gusting 3 17.2
2014-Apr-24 04:40 332 1 gusting 5 16.7
2014-Apr-24 04:20 16.7
2014-Apr-24 04:10 340 1 gusting 2 16.1
2014-Apr-24 04:00 010 0 gusting 3 16.1
2014-Apr-24 03:50 274 0 gusting 2 16.1
2014-Apr-24 03:40 301 1 gusting 5 15.6
2014-Apr-24 03:30 269 0 gusting 2 15.6
2014-Apr-24 03:20 317 0 gusting 1 15.6
2014-Apr-24 03:10 15.6
2014-Apr-24 02:50 323 0 gusting 0 15.6
2014-Apr-24 02:40 297 15.6
2014-Apr-24 02:30 270 15.6
2014-Apr-24 02:20 15.6
2014-Apr-24 02:10 270 0 gusting 1 15.6
2014-Apr-24 02:00 270 15.6
2014-Apr-24 01:50 270 15.6
2014-Apr-24 01:30 262 0 gusting 1 15.6
2014-Apr-24 01:20 15.6
2014-Apr-24 01:10 15.6
2014-Apr-24 01:00 267 16.1
2014-Apr-24 00:50 276 16.1
2014-Apr-24 00:40 264 16.1
2014-Apr-24 00:30 279 0 gusting 0 16.1
2014-Apr-24 00:20 270 16.1
2014-Apr-24 00:00 283 16.1
2014-Apr-23 23:50 16.7
2014-Apr-23 23:40 16.7
2014-Apr-23 23:30 16.7
2014-Apr-23 23:10 282 0 gusting 0 16.7
2014-Apr-23 23:00 270 16.7
2014-Apr-23 22:50 269 16.7
2014-Apr-23 22:40 269 16.7
2014-Apr-23 22:30 270 0 gusting 1 16.7
2014-Apr-23 22:10 274 16.7
2014-Apr-23 22:00 275 16.7
2014-Apr-23 21:50 16.7
2014-Apr-23 21:40 275 16.7
2014-Apr-23 21:30 193 0 gusting 0 16.1
2014-Apr-23 21:20 290 16.1
2014-Apr-23 21:00 308 16.7
2014-Apr-23 20:50 308 16.7
2014-Apr-23 20:40 16.7
2014-Apr-23 20:30 16.7
2014-Apr-23 20:20 308 16.7
2014-Apr-23 20:10 16.7
2014-Apr-23 20:00 308 16.7
2014-Apr-23 19:50 17.2
2014-Apr-23 19:40 308 17.2
2014-Apr-23 19:20 265 17.8
2014-Apr-23 19:10 253 17.8
2014-Apr-23 19:00 17.8
2014-Apr-23 18:50 17.8
2014-Apr-23 18:40 206 17.8
2014-Apr-23 18:30 300 0 gusting 0 17.8
2014-Apr-23 18:20 320 1 gusting 3 17.8
2014-Apr-23 18:10 318 0 gusting 1 17.8
2014-Apr-23 17:50 278 0 gusting 2 17.8
2014-Apr-23 17:40 252 18.3
2014-Apr-23 17:30 078 18.3
2014-Apr-23 17:20 355 1 gusting 1 18.3
2014-Apr-23 17:10 313 18.9
2014-Apr-23 16:50 18.9
2014-Apr-23 16:40 19.4
2014-Apr-23 16:30 19.4
2014-Apr-23 16:20 236 19.4
2014-Apr-23 16:10 336 20.0
2014-Apr-23 16:00 20.0
2014-Apr-23 15:50 035 20.0
2014-Apr-23 15:40 20.0
2014-Apr-23 15:20 031 20.6
2014-Apr-23 15:10 031 0 gusting 0 20.6
2014-Apr-23 15:00 116 0 gusting 0 20.6
2014-Apr-23 14:50 004 0 gusting 2 20.6
2014-Apr-23 14:30 045 0 gusting 3 20.6
2014-Apr-23 14:20 040 0 gusting 1 20.6
2014-Apr-23 14:10 208 20.6
2014-Apr-23 14:00 207 20.6
2014-Apr-23 13:40 20.6
2014-Apr-23 13:30 197 0 gusting 2 20.6
2014-Apr-23 13:20 181 21.1
2014-Apr-23 13:10 185 0 gusting 3 21.1
2014-Apr-23 13:00 135 0 gusting 1 21.7
2014-Apr-23 12:40 099 21.7
2014-Apr-23 12:30 21.1
2014-Apr-23 12:10 033 1 gusting 6 21.7
2014-Apr-23 11:50 282 21.1
2014-Apr-23 11:40 096 21.1
2014-Apr-23 11:20 20.6
2014-Apr-23 11:10 109 21.1
2014-Apr-23 11:00 116 21.1
2014-Apr-23 10:50 123 0 gusting 1 21.1
2014-Apr-23 10:40 134 0 gusting 1 21.1
2014-Apr-23 10:20 057 0 gusting 1 21.7
2014-Apr-23 10:10 030 21.1
2014-Apr-23 10:00 032 0 gusting 2 21.1
2014-Apr-23 09:50 013 0 gusting 2 20.6
2014-Apr-23 09:40 112 0 gusting 2 20.6
2014-Apr-23 09:30 051 0 gusting 3 20.6
2014-Apr-23 09:10 131 1 gusting 2 21.1
2014-Apr-23 09:00 086 0 gusting 5 21.1
2014-Apr-23 08:50 058 0 gusting 1 21.1
2014-Apr-23 08:40 085 1 gusting 2 20.6
2014-Apr-23 08:30 340 0 gusting 2 20.6
2014-Apr-23 08:10 045 20.0
2014-Apr-23 08:00 072 0 gusting 1 20.0
2014-Apr-23 07:50 066 20.0
2014-Apr-23 07:30 092 0 gusting 1 20.0
2014-Apr-23 07:10 115 1 gusting 2 20.0
2014-Apr-23 07:00 095 1 gusting 4 19.4
2014-Apr-23 06:50 085 0 gusting 2 18.3
2014-Apr-23 06:40 093 0 gusting 1 17.8
2014-Apr-23 06:30 043 0 gusting 2 17.2
2014-Apr-23 06:20 081 17.2
2014-Apr-23 06:10 081 16.7
2014-Apr-23 06:00 081 16.1
2014-Apr-23 05:50 341 15.6
2014-Apr-23 05:30 15.6
2014-Apr-23 05:20 15.0
2014-Apr-23 05:10 14.4
2014-Apr-23 05:00 14.4
2014-Apr-23 04:50 14.4
2014-Apr-23 04:20 13.9
2014-Apr-23 04:10 297 13.9
2014-Apr-23 04:00 297 13.3
2014-Apr-23 03:50 13.3
2014-Apr-23 03:40 13.3
2014-Apr-23 03:10 13.3
2014-Apr-23 03:00 13.3
2014-Apr-23 02:50 13.3
2014-Apr-23 02:40 13.3
2014-Apr-23 02:20 13.3
2014-Apr-23 02:10 296 13.3
2014-Apr-23 02:00 298 13.3
2014-Apr-23 01:50 304 13.3
2014-Apr-23 01:40 13.9
2014-Apr-23 01:30 13.9
2014-Apr-23 01:20 13.9
2014-Apr-23 01:10 13.9
2014-Apr-23 00:50 13.9
2014-Apr-23 00:40 13.9
2014-Apr-23 00:30 13.9
2014-Apr-23 00:20 300 13.9
2014-Apr-23 00:10 13.9
2014-Apr-23 00:00 14.4
2014-Apr-22 23:50 14.4
2014-Apr-22 23:40 14.4
2014-Apr-22 23:30 279 14.4
2014-Apr-22 23:20 14.4
2014-Apr-22 23:10 14.4
2014-Apr-22 23:00 269 0 gusting 1 14.4
2014-Apr-22 22:50 265 14.4
2014-Apr-22 22:40 265 14.4
2014-Apr-22 22:20 14.4
2014-Apr-22 22:00 14.4
2014-Apr-22 21:50 14.4
2014-Apr-22 21:40 265 14.4
2014-Apr-22 21:20 14.4
2014-Apr-22 21:10 270 14.4
2014-Apr-22 21:00 270 14.4
2014-Apr-22 20:40 14.4
2014-Apr-22 20:30 14.4
2014-Apr-22 20:10 041 15.0
2014-Apr-22 20:00 041 15.0
2014-Apr-22 19:50 276 15.0
2014-Apr-22 19:40 15.0
2014-Apr-22 19:30 276 0 gusting 0 15.0
2014-Apr-22 19:20 285 15.0
2014-Apr-22 19:10 285 0 gusting 1 15.6
2014-Apr-22 19:00 266 0 gusting 1 15.6
2014-Apr-22 18:50 290 0 gusting 3 15.6
2014-Apr-22 18:40 346 16.1
2014-Apr-22 18:30 346 16.1
2014-Apr-22 17:40 058 17.2
2014-Apr-22 17:30 058 17.2
2014-Apr-22 17:20 17.8
2014-Apr-22 17:00 058 17.8
2014-Apr-22 16:50 18.3
2014-Apr-22 16:40 18.3
2014-Apr-22 16:20 058 18.3
2014-Apr-22 16:10 057 0 gusting 1 18.3
2014-Apr-22 16:00 061 18.3
2014-Apr-22 15:40 054 18.3
2014-Apr-22 15:30 046 0 gusting 0 18.3
2014-Apr-22 15:20 046 18.3
2014-Apr-22 15:10 046 0 gusting 1 18.9
2014-Apr-22 15:00 103 0 gusting 1 18.3
2014-Apr-22 14:50 077 0 gusting 0 18.3
2014-Apr-22 14:40 091 0 gusting 2 18.3
2014-Apr-22 14:30 039 0 gusting 2 18.9
2014-Apr-22 14:00 115 0 gusting 4 18.9
2014-Apr-22 13:50 117 0 gusting 2 19.4
2014-Apr-22 13:40 106 0 gusting 2 18.9
2014-Apr-22 13:30 113 0 gusting 3 19.4
2014-Apr-22 13:20 114 0 gusting 2 19.4
2014-Apr-22 13:10 106 1 gusting 4 20.0
2014-Apr-22 13:00 144 1 gusting 3 20.0
2014-Apr-22 12:50 122 0 gusting 3 20.6
2014-Apr-22 12:40 098 1 gusting 4 20.0
2014-Apr-22 12:30 069 0 gusting 2 20.6
2014-Apr-22 12:20 129 1 gusting 3 20.6
2014-Apr-22 12:10 107 1 gusting 4 20.6
2014-Apr-22 11:50 115 1 gusting 3 20.6
2014-Apr-22 11:40 121 1 gusting 3 20.6
2014-Apr-22 11:30 090 1 gusting 3 20.6
2014-Apr-22 11:20 112 1 gusting 3 20.6
2014-Apr-22 11:10 089 1 gusting 2 20.6
2014-Apr-22 11:00 144 1 gusting 4 20.0
2014-Apr-22 10:50 112 1 gusting 2 20.0
2014-Apr-22 10:40 101 1 gusting 4 20.0
2014-Apr-22 10:30 097 1 gusting 4 20.0
2014-Apr-22 10:20 140 0 gusting 2 19.4
2014-Apr-22 10:00 101 1 gusting 2 19.4
2014-Apr-22 09:50 116 2 gusting 6 21.1
2014-Apr-22 09:40 121 1 gusting 5 21.1
2014-Apr-22 09:30 129 1 gusting 3 21.1
2014-Apr-22 09:20 096 2 gusting 5 20.6
2014-Apr-22 09:10 086 1 gusting 6 20.6
2014-Apr-22 09:00 078 1 gusting 4 20.6
2014-Apr-22 08:50 114 1 gusting 5 21.1
2014-Apr-22 08:40 114 1 gusting 6 21.1
2014-Apr-22 08:30 109 1 gusting 4 21.1
2014-Apr-22 08:20 100 1 gusting 6 21.1
2014-Apr-22 08:10 145 0 gusting 1 21.1
2014-Apr-22 08:00 084 21.1
2014-Apr-22 07:40 047 0 gusting 2 20.0
2014-Apr-22 07:30 089 0 gusting 0 20.0
2014-Apr-22 07:00 122 0 gusting 4 19.4
2014-Apr-22 06:50 18.9
2014-Apr-22 06:30 161 17.8
2014-Apr-22 06:20 133 17.2
2014-Apr-22 06:10 138 16.7
2014-Apr-22 06:00 16.1
2014-Apr-22 05:50 15.6
2014-Apr-22 05:40 15.0
2014-Apr-22 05:20 13.9
2014-Apr-22 05:10 13.3
2014-Apr-22 05:00 273 12.8